Погода в Нефедове

Россия / Тюменская область     58°49′41″N   72°33′19″E
темп.,
°C
ветер,
м/с
пор.,
м/с
влажн.,
%
обл.,
%
осадки,
мм/ч
давл.,
гПа
погр.,
м
9 декабря, чт
чт923:00−22зюз26995 0.0 1039101
02:00−21зюз39975 0.0 1038152
05:00−20юз289793 0.0 1038138
08:00−17ююз3109447 0.0 1037204
11:00−13ююз31086100 0.0 1036280
14:00−10ююз41194100 0.3 1033435
17:00−10ююз399486 0.6 1033391
20:00−10ююз279684 0.1 1033214
10 декабря, пт
пт1023:00−11ююз269776 0.1 1033132
02:00−11юз289782 0.0 1033161
05:00−10ююз279792 0.1 1032163
08:00−8ююз3992100 0.0 1031254
11:00−8ю41283100 0.0 1030315
14:00−7ююз41576100 0.0 1028437
17:00−6ююз51672100 0.0 1026496
20:00−7ююз51676100 0.0 1024515
11 декабря, сб
сб1123:00−7юз41281100 0.0 1023486
02:00−7юз4119498 0.2 1022511
05:00−8зюз4129397 0.4 1022505
08:00−10зсз5108886 0.1 1023540
11:00−13зсз4109269 0.1 1025373
14:00−14з3109324 0.0 1025349
17:00−15з3119473 0.0 1026323
20:00−16з3119688 0.0 1026308
12 декабря, вс
вс1223:00−15зсз31195100 0.1 1026372
02:00−14зсз41194100 0.1 1027490
05:00−14сз41192100 0.1 1028591
08:00−15сз4119381 0.0 1029392
11:00−15зсз310945 0.0 1030333
14:00−15з269473 0.0 1030208
17:00−15юз269573 0.0 1029151
20:00−16юз279743 0.0 1028123
13 декабря, пн
пн1323:00−17зюз269897 0.0 1027123
02:00−14з2795100 0.0 1026244
05:00−12зсз2895100 0.3 1025352
08:00−12сз279598 0.1 1025374
11:00−13сз379687 0.1 1026297
14:00−13сз269693 0.0 1027255
17:00−16ссз279880 0.1 1028161
20:00−20ссз2310068 0.0 103053